Wind_Speed
31 30 29 29 28 27 26 25 24 23 22 21 21 20 20 20 20 20 20 20 20 20 20 19 19 18 18 17 17 17 17 17 17 17 17 18 18 18 18 18 18 18 18
31 31 30 31 30 29 28 27 26 26 24 23 22 22 21 21 21 21 21 21 21 21 21 21 21 20 20 20 19 19 19 19 19 19 19 19 20 20 20 20 20 20 20
33 32 32 32 32 32 31 30 29 28 27 26 25 24 24 23 22 22 22 22 22 21 22 22 22 22 22 22 21 21 21 21 21 21 22 22 21 21 22 22 22 22 22
36 34 33 34 33 33 33 32 31 30 29 29 27 27 26 25 25 25 24 24 24 24 23 23 23 24 23 23 22 22 23 23 23 23 23 23 24 24 24 24 24 24 24
37 36 35 35 35 34 34 34 33 32 31 31 30 29 29 28 27 27 27 27 27 26 26 25 25 25 25 24 24 25 25 26 26 26 25 26 26 26 26 25 25 25 26
39 38 36 36 37 36 35 35 35 34 33 33 32 32 31 30 29 30 30 30 29 28 28 27 27 27 27 27 27 27 27 28 28 28 28 28 28 28 27 27 27 27 27
41 41 40 39 39 38 38 37 36 36 35 35 34 33 33 32 32 31 31 31 31 30 30 30 30 30 30 30 29 29 29 29 30 30 29 30 29 29 29 29 28 28 28
42 42 41 40 40 40 39 39 39 38 38 37 36 35 35 35 34 33 33 33 33 33 32 32 32 31 31 32 32 31 31 31 31 31 32 32 32 31 31 30 30 30 30
43 42 42 42 42 41 40 40 41 41 40 39 39 38 37 37 36 35 33 34 35 35 35 35 35 34 33 34 34 33 33 33 33 33 34 33 33 33 33 32 32 32 32
43 42 42 43 42 42 42 42 42 41 42 41 40 39 38 38 37 36 36 35 35 36 36 36 36 36 35 35 35 35 35 35 35 35 35 35 35 35 35 34 34 34 34
43 43 43 42 43 43 43 43 43 42 42 42 40 40 39 39 38 37 37 37 37 38 38 37 37 37 37 37 37 37 37 37 37 37 37 36 36 36 36 36 37 37 37
44 42 43 43 43 44 44 44 43 43 42 42 42 42 41 40 40 39 38 38 37 38 38 38 37 38 38 38 38 38 38 38 39 39 38 38 38 38 38 39 39 39 39
44 43 43 42 42 44 45 45 45 44 43 43 43 42 41 41 41 41 40 40 39 39 38 39 39 39 39 39 40 40 40 40 40 40 40 41 41 40 41 41 41 42 42
43 43 43 42 41 43 44 45 45 45 44 44 44 43 42 42 42 43 43 42 42 42 42 42 42 42 41 41 41 41 42 42 42 42 42 43 43 43 44 44 44 44 44
43 44 45 44 43 43 44 45 45 45 45 44 43 43 43 43 43 43 44 44 44 44 43 43 43 44 44 44 44 43 43 43 44 44 44 45 46 46 46 47 46 46 46
43 43 45 45 43 42 42 43 45 45 45 45 44 44 44 44 44 44 44 45 46 46 44 44 44 45 46 46 46 46 45 46 46 46 47 47 48 49 49 49 49 49 49
42 42 44 44 43 43 43 44 45 45 45 45 44 44 44 44 45 45 45 46 47 47 47 46 47 47 48 48 47 48 48 49 49 49 50 50 50 50 50 51 51 51 51
43 43 44 44 43 42 43 44 45 46 46 45 44 44 45 46 46 46 46 47 48 49 49 48 49 50 50 50 50 51 51 51 52 52 53 53 52 52 52 53 53 53 53
44 45 45 45 44 44 44 45 45 46 46 46 46 45 45 46 47 47 47 48 49 49 50 51 51 51 52 52 52 52 52 53 54 55 56 57 56 55 54 54 55 56 56
45 46 46 46 46 46 46 46 47 47 47 47 47 47 46 47 48 49 49 49 49 50 51 52 52 52 53 53 54 54 55 55 56 57 57 58 58 57 56 57 57 57 57
45 46 48 48 47 47 47 47 47 47 47 48 48 48 49 49 49 50 50 50 51 52 52 53 54 55 55 55 55 56 57 56 56 58 58 57 57 56 56 57 58 58 58
46 46 47 47 47 47 48 48 48 48 48 48 49 49 50 50 51 51 52 53 53 54 55 56 56 56 56 56 56 56 57 57 56 56 56 56 57 57 57 57 58 58 58
46 45 45 46 46 46 47 47 48 49 49 49 50 51 51 52 53 54 55 55 55 56 57 57 57 57 56 57 57 57 56 56 56 56 56 56 57 56 55 56 56 57 57
44 45 45 45 46 46 47 47 47 48 49 49 50 51 52 53 55 55 56 56 56 56 57 57 57 57 57 57 57 57 56 56 55 55 56 55 55 55 54 54 55 56 56
45 45 46 46 46 47 47 48 48 49 49 50 51 52 53 53 54 55 56 56 56 56 56 57 56 56 56 56 57 56 56 56 55 55 56 56 55 54 53 53 54 55 55
45 46 46 47 47 47 47 48 49 49 50 51 52 53 54 54 55 55 55 55 56 56 56 56 55 56 56 56 56 56 56 56 55 55 55 56 55 54 53 52 53 54 54
Wind_Direction
240 242 244 242 241 242 243 245 245 246 245 245 246 248 251 254 256 257 258 260 261 261 264 267 271 273 275 277 278 279 282 283 283 285 289 293 296 298 299 300 302 304 307
240 241 242 242 242 242 243 245 244 244 245 247 247 248 251 256 257 258 259 260 261 262 265 266 269 271 273 274 277 278 280 282 282 283 287 290 293 295 296 297 298 299 301
239 241 241 242 242 242 242 243 242 243 246 247 248 249 253 256 257 258 258 260 261 263 265 267 268 270 273 274 276 277 279 280 282 283 286 288 290 292 294 296 297 297 298
239 240 241 242 242 242 241 241 242 244 245 247 249 251 254 258 257 258 258 260 262 262 264 267 269 271 273 275 276 277 277 279 281 283 285 287 289 290 292 294 295 295 295
239 240 241 242 242 243 242 241 242 244 246 248 250 253 255 258 258 258 259 260 262 262 263 266 269 270 273 274 275 277 278 278 279 281 283 285 286 288 290 291 292 293 293
240 240 241 241 241 241 242 243 244 244 246 249 251 253 254 256 258 258 259 260 262 263 264 266 268 270 272 275 276 277 278 278 278 279 281 283 284 287 288 289 290 291 292
240 240 241 241 240 240 242 243 245 245 246 249 251 252 254 257 258 259 259 260 261 262 264 265 268 271 272 274 275 276 278 279 278 279 281 283 283 285 286 288 289 290 291
240 240 241 241 239 240 241 242 244 245 246 248 251 253 254 256 258 258 260 260 260 262 263 265 267 271 272 273 275 276 277 278 279 280 281 281 281 283 284 285 287 289 290
240 239 241 241 239 240 241 242 243 245 246 249 251 252 255 256 257 258 259 260 261 262 264 267 267 271 272 274 275 276 277 278 279 280 280 280 280 281 282 284 285 287 289
239 241 241 242 241 241 241 242 243 245 246 248 250 252 254 256 256 257 259 260 262 263 265 266 269 271 272 274 275 276 276 278 279 280 280 280 280 280 280 282 283 285 287
240 242 242 242 242 242 242 243 243 244 245 248 250 251 253 255 256 258 259 261 262 263 264 265 269 271 272 273 275 276 276 277 278 280 280 280 280 280 280 280 282 284 285
239 241 242 242 242 242 243 244 245 245 246 248 250 251 253 255 257 258 260 262 263 264 264 266 269 271 272 273 274 276 277 278 279 279 279 279 279 280 280 280 282 283 283
238 239 242 242 242 242 243 244 245 246 247 249 252 253 254 256 258 259 261 263 265 264 265 268 270 271 272 273 274 275 277 278 279 278 278 278 277 278 279 280 281 282 283
237 240 241 242 243 244 244 244 243 245 247 250 252 254 256 258 260 261 262 264 266 266 267 269 270 271 272 273 275 276 277 278 279 277 276 277 277 278 279 280 281 281 282
237 240 240 241 243 244 245 244 244 245 248 250 252 254 256 258 261 263 264 265 266 267 270 270 270 272 272 273 275 275 276 278 278 277 277 277 277 278 279 280 281 281 281
241 244 242 242 243 245 246 246 246 246 248 250 253 256 257 259 261 263 264 265 267 268 269 270 270 271 272 273 274 274 275 276 277 277 277 277 278 278 280 279 280 281 281
241 243 243 243 245 247 247 247 247 248 250 252 254 256 258 260 262 264 265 266 267 268 269 270 270 271 272 272 273 273 274 275 276 277 278 278 278 279 280 280 280 280 281
241 242 242 242 245 246 247 247 248 249 251 252 254 256 258 259 262 264 265 267 268 269 269 271 272 273 273 273 273 273 274 275 276 277 278 278 278 279 279 281 281 281 281
243 242 242 242 245 246 247 248 249 250 251 253 255 257 259 260 261 263 265 267 268 269 270 271 273 274 274 274 274 274 275 275 276 277 278 278 278 279 280 280 280 281 281
243 242 242 243 245 246 247 249 250 251 252 254 256 258 260 262 263 265 266 267 268 270 271 272 274 274 275 275 275 275 276 276 277 277 278 278 279 279 279 279 280 280 281
244 244 244 245 246 246 247 249 251 252 254 255 257 259 261 263 265 266 267 268 270 271 272 274 275 275 276 276 277 276 276 276 277 278 279 279 279 278 278 279 279 280 280
243 245 244 246 247 248 249 251 253 254 255 257 258 260 262 264 265 267 268 270 271 273 273 274 275 276 276 276 277 277 277 277 277 278 279 279 279 278 279 280 280 280 280
243 245 247 248 250 251 252 254 255 257 258 258 259 261 263 265 266 268 270 270 271 273 274 274 275 276 276 276 277 277 278 278 279 278 278 278 279 280 281 281 281 281 281
244 246 246 248 250 252 253 255 256 257 259 261 262 264 265 266 267 269 270 271 272 273 273 274 275 276 276 276 276 277 277 278 278 278 279 279 279 281 282 282 282 282 281
245 246 248 250 251 252 254 256 257 259 261 263 265 266 267 268 269 270 271 271 271 272 273 273 274 275 275 276 276 276 277 278 277 278 279 279 280 281 282 282 282 281 281
247 248 249 251 253 254 256 257 259 261 263 264 266 268 268 269 269 270 271 271 272 272 273 273 273 273 274 275 275 276 276 277 278 278 278 279 280 281 281 281 280 280 281
Height
5818 5820 5822 5824 5826 5828 5830 5832 5833 5835 5837 5839 5840 5841 5842 5843 5844 5845 5845 5845 5846 5846 5846 5847 5846 5846 5846 5845 5845 5845 5844 5844 5843 5842 5841 5840 5839 5838 5837 5835 5834 5832 5831
5812 5814 5816 5818 5820 5823 5825 5827 5828 5831 5832 5834 5836 5837 5838 5839 5840 5840 5841 5841 5842 5842 5842 5842 5842 5842 5842 5841 5841 5841 5840 5840 5839 5838 5837 5836 5835 5834 5833 5831 5830 5829 5827
5805 5808 5810 5812 5815 5817 5819 5821 5823 5825 5827 5829 5831 5832 5833 5834 5835 5836 5836 5837 5837 5838 5838 5838 5838 5837 5837 5837 5837 5836 5836 5835 5835 5834 5833 5832 5831 5830 5829 5827 5826 5825 5823
5797 5800 5803 5806 5808 5810 5812 5815 5817 5820 5822 5824 5825 5827 5828 5829 5830 5831 5831 5832 5832 5833 5833 5833 5833 5833 5832 5832 5832 5831 5831 5830 5830 5829 5828 5827 5826 5825 5824 5823 5821 5820 5818
5790 5793 5796 5799 5801 5804 5806 5809 5811 5813 5816 5818 5819 5821 5822 5823 5824 5825 5826 5826 5827 5827 5827 5828 5828 5827 5827 5827 5826 5826 5825 5825 5824 5823 5822 5822 5821 5820 5818 5817 5816 5815 5813
5782 5785 5788 5791 5794 5797 5799 5802 5804 5807 5809 5811 5813 5814 5816 5816 5817 5818 5819 5820 5820 5821 5821 5822 5822 5822 5821 5821 5820 5820 5819 5819 5818 5817 5816 5815 5815 5814 5813 5811 5810 5809 5808
5773 5777 5780 5783 5786 5789 5792 5795 5797 5800 5802 5804 5806 5807 5809 5810 5811 5811 5812 5813 5814 5814 5815 5815 5815 5815 5815 5815 5814 5814 5813 5812 5811 5810 5809 5809 5808 5807 5806 5805 5804 5803 5802
5764 5768 5771 5774 5777 5781 5784 5787 5789 5792 5794 5796 5799 5800 5801 5803 5804 5805 5805 5806 5806 5807 5808 5808 5808 5808 5808 5808 5807 5807 5806 5805 5804 5803 5802 5801 5800 5800 5799 5798 5797 5796 5795
5755 5759 5762 5765 5768 5771 5775 5778 5781 5784 5787 5789 5790 5792 5794 5795 5796 5797 5798 5798 5799 5800 5800 5801 5801 5801 5801 5800 5800 5799 5799 5798 5797 5796 5794 5793 5793 5792 5791 5791 5790 5789 5788
5746 5750 5753 5756 5759 5762 5766 5769 5772 5776 5778 5780 5782 5784 5785 5787 5788 5790 5791 5791 5792 5792 5793 5793 5793 5793 5793 5792 5792 5791 5790 5790 5789 5787 5786 5786 5785 5784 5783 5783 5782 5781 5780
5737 5740 5744 5747 5750 5753 5757 5760 5763 5766 5769 5772 5774 5775 5777 5778 5780 5781 5783 5783 5784 5784 5785 5785 5784 5785 5785 5784 5783 5783 5782 5781 5780 5779 5778 5777 5776 5775 5775 5774 5773 5772 5771
5727 5731 5734 5737 5741 5744 5747 5751 5754 5757 5760 5763 5765 5766 5768 5770 5771 5773 5774 5774 5775 5776 5776 5776 5776 5776 5776 5775 5775 5774 5773 5772 5771 5770 5769 5768 5767 5766 5766 5765 5764 5763 5762
5718 5722 5725 5729 5732 5735 5739 5742 5745 5748 5751 5753 5755 5757 5759 5760 5762 5763 5764 5765 5766 5767 5767 5767 5767 5767 5767 5766 5766 5765 5764 5763 5762 5760 5759 5759 5758 5757 5756 5755 5754 5753 5752
5709 5713 5716 5720 5723 5726 5729 5732 5736 5739 5741 5744 5746 5748 5750 5751 5752 5753 5755 5756 5757 5757 5758 5758 5758 5757 5757 5756 5756 5755 5755 5753 5752 5751 5750 5749 5748 5747 5746 5745 5744 5742 5741
5699 5703 5707 5710 5714 5717 5719 5723 5726 5729 5732 5734 5737 5739 5740 5742 5743 5744 5745 5745 5747 5747 5748 5748 5748 5747 5747 5746 5746 5745 5744 5743 5742 5741 5739 5738 5737 5736 5735 5734 5732 5731 5730
5690 5693 5697 5701 5704 5707 5710 5713 5717 5720 5722 5725 5727 5729 5730 5732 5733 5734 5734 5735 5735 5736 5737 5737 5737 5736 5735 5735 5734 5734 5733 5732 5731 5729 5728 5727 5726 5724 5723 5722 5720 5719 5717
5679 5683 5686 5691 5694 5697 5700 5703 5707 5710 5713 5715 5717 5718 5720 5721 5722 5723 5723 5724 5724 5724 5725 5726 5725 5724 5724 5723 5722 5722 5721 5720 5719 5717 5716 5715 5713 5712 5710 5709 5707 5705 5704
5669 5673 5677 5681 5684 5687 5691 5694 5697 5700 5702 5704 5706 5708 5709 5710 5711 5712 5712 5712 5712 5712 5712 5713 5713 5712 5711 5711 5710 5709 5708 5707 5706 5704 5703 5701 5700 5698 5696 5695 5693 5691 5689
5658 5662 5666 5670 5674 5677 5680 5683 5686 5689 5691 5693 5695 5697 5698 5699 5700 5700 5700 5700 5700 5700 5700 5700 5700 5699 5698 5697 5696 5696 5694 5693 5692 5690 5688 5686 5685 5683 5681 5680 5677 5675 5673
5647 5652 5655 5659 5663 5666 5669 5672 5675 5677 5680 5682 5683 5685 5686 5687 5688 5688 5688 5688 5687 5687 5686 5686 5686 5686 5685 5683 5682 5681 5680 5679 5677 5675 5673 5671 5669 5667 5665 5663 5662 5659 5657
5636 5640 5644 5648 5652 5655 5658 5661 5663 5666 5668 5669 5671 5672 5673 5674 5675 5675 5675 5675 5674 5673 5673 5672 5671 5671 5670 5668 5667 5665 5664 5663 5662 5659 5658 5656 5653 5651 5649 5647 5645 5642 5640
5624 5628 5632 5636 5640 5643 5646 5649 5651 5653 5655 5657 5658 5660 5660 5661 5661 5661 5661 5660 5660 5659 5658 5657 5656 5655 5654 5652 5651 5649 5648 5647 5647 5645 5642 5641 5637 5635 5633 5630 5627 5625 5623
5612 5616 5620 5624 5627 5631 5633 5636 5638 5640 5642 5644 5645 5646 5647 5647 5647 5647 5646 5645 5644 5643 5642 5641 5640 5639 5638 5637 5635 5633 5632 5630 5629 5627 5625 5625 5622 5619 5616 5613 5610 5608 5606
5601 5604 5608 5611 5615 5618 5620 5623 5625 5627 5628 5630 5631 5631 5632 5632 5631 5631 5630 5630 5628 5627 5626 5625 5624 5623 5621 5619 5617 5616 5615 5614 5613 5611 5607 5608 5606 5604 5601 5598 5594 5591 5589
5588 5592 5595 5599 5602 5605 5607 5609 5611 5613 5615 5616 5616 5616 5616 5616 5616 5615 5614 5614 5613 5611 5609 5608 5607 5605 5604 5602 5600 5599 5598 5597 5597 5596 5592 5591 5590 5588 5587 5584 5579 5576 5573
5576 5579 5583 5586 5589 5592 5594 5596 5597 5599 5601 5602 5602 5601 5601 5600 5600 5598 5597 5597 5596 5596 5594 5592 5591 5589 5588 5586 5584 5583 5581 5580 5579 5580 5577 5574 5573 5571 5571 5570 5565 5561 5558